Regional Weather Roundup
Issued by NWS

Home | Current Version | Previous Version | Text Only | Print | Product List | Glossary On
Versions: 1 2 3 4 5 6 7 8 9 10 11 12 13 14 15 16 17 18 19 20 21 22 23 24 25 26 27 28 29 30 31 32 33 34 35 36 37 38 39 40 41 42 43 44 45 46 47 48 49 50
000
ASUS44 KJAN 222310
RWRMS

MISSISSIPPI HOURLY WEATHER ROUNDUP
NATIONAL WEATHER SERVICE JACKSON MS
500 PM CST MON DEC 22 2014

NOTE: "FAIR: INDICATES FEW OR NO CLOUDS BELOW 12,000 FEET WITH NO
SIGNIFICANT WEATHER AND/OR OBSTRUCTIONS TO VISIBILITY.

MSZ001>002-007>008-010>013-018>021-025>028-034>036-230000-
NORTHWEST MISSISSIPPI

CITY           SKY/WX    TMP DP  RH WIND       PRES   REMARKS
CLARKSDALE     CLOUDY    59  57  94 SE12      29.61F
CLEVELAND      CLOUDY    60  59  96 S8        29.61S
GREENWOOD      CLOUDY    60  57  89 S12       29.63F
GREENVILLE     CLOUDY    62  58  86 S9        29.60F
GRENADA        CLOUDY    55  55 100 SE9       29.65F
OLIVE BRANCH   CLOUDY    54  54 100 S10       29.63R
OXFORD         CLOUDY    54  52  94 SE10      29.65S FOG
TUNICA         MOCLDY    55  54  94 SE13      29.61F
$$

MSZ003>006-009-014>017-022>024-029>033-037>039-230000-
NORTHEAST MISSISSIPPI

CITY           SKY/WX    TMP DP  RH WIND       PRES   REMARKS
COLUMBUS AFB   CLOUDY    55  55 100 SE6       29.71S
CORINTH        CLOUDY    54  52  94 SE10      29.66F
GOLDN TRIANGLE CLOUDY    55  54  94 MISG      29.69F FOG
STARKVILLE     FOG       54  54 100 SE7       29.69S VSB 3/4
TUPELO         LGT RAIN  54  52  93 S13       29.68F
$$

MSZ040-058-230000-
CENTRAL MISSISSIPPI

CITY           SKY/WX    TMP DP  RH WIND       PRES   REMARKS
JACKSON INTL   MOCLDY    62  60  93 S8        29.67R
JACKSON HAWKNS PTCLDY    63  60  90 S8        29.66R
MERIDIAN KEY   CLOUDY    61  59  93 S9        29.70F
MERIDIAN NAS   FOG       58  57  97 SE9       29.71F VSB 3/4
RAYMOND        MOCLDY    63  57  82 SE6       29.65S
VICKSBURG      MOCLDY    67  59  75 SW7       29.63S
$$

MSZ059>079-230000-
SOUTH MISSISSIPPI

CITY           SKY/WX    TMP DP  RH WIND       PRES   REMARKS
HATTIESBURG    MOCLDY    67  65  93 SE7       29.70F
MCCOMB         PTCLDY    67  63  87 S6        29.66F
NATCHEZ        MOCLDY    68  61  77 S5        29.64S
PINE BELT      PTCLDY    66  63  88 S8        29.70F
$$

MSZ080>082-230000-
COASTAL MISSISSIPPI

CITY           SKY/WX    TMP DP  RH WIND       PRES   REMARKS
BAY ST LOUIS   MOCLDY    70  63  78 S10G16    29.72S
BILOXI         MOCLDY    64  64 100 S12       29.74S
PASCAGOULA     MOCLDY    69  65  86 S9        29.75S
GULFPORT       MOCLDY    67  64  90 S7        29.73S
$$


USA.gov is the U.S. government's official web portal to all federal, state and local government web resources and services.